When you browse on this site, cookies collect data to enhance your experience and personalize the content and advertising you see.
Visit our Privacy Policy to learn more. By continuing to use the site, you agree to this use of cookies and data.
  • In Hungary
  • List of Countries
  • For 7 days
  • Water Temperature
  • Satellite Maps
  • Weather Map
  • News
  • Weather Widgets
  • user-avatar
    Login

    Hourly Weather Kuai'an

    Today, 22 February, Friday

    Time Temperature Precipitation Wind Pressure Humidity
    00:00 +12°C° 1.4 mm 2 mps 740 mmHg 93%
    01:00 +13°C° 1.4 mm 2 mps 740 mmHg 93%
    02:00 +12°C° 0 mm 1 mps 739 mmHg 92%
    03:00 +12°C° 1.1 mm 1 mps 740 mmHg 92%
    04:00 +12°C° 1.1 mm 1 mps 740 mmHg 93%
    05:00 +12°C° 1.1 mm 1 mps 740 mmHg 93%
    06:00 +13°C° 0 mm 1 mps 740 mmHg 92%
    07:00 +13°C° 0 mm 1 mps 740 mmHg 91%
    08:00 +13°C° 0 mm 1 mps 741 mmHg 85%
    09:00 +15°C° 0 mm 1 mps 741 mmHg 80%
    10:00 +16°C° 0 mm 1 mps 741 mmHg 74%
    11:00 +19°C° 0 mm 1 mps 741 mmHg 69%
    12:00 +20°C° 0 mm 1 mps 740 mmHg 64%
    13:00 +20°C° 0 mm 2 mps 740 mmHg 59%
    14:00 +21°C° 0 mm 2 mps 740 mmHg 54%
    15:00 +20°C° 0 mm 2 mps 740 mmHg 59%
    16:00 +19°C° 0 mm 2 mps 740 mmHg 63%
    17:00 +18°C° 0 mm 3 mps 740 mmHg 68%
    18:00 +17°C° 0 mm 3 mps 740 mmHg 74%
    19:00 +14°C° 0 mm 3 mps 740 mmHg 80%
    20:00 +13°C° 0 mm 3 mps 741 mmHg 87%
    21:00 +13°C° 0.1 mm 3 mps 741 mmHg 87%
    22:00 +13°C° 0.1 mm 3 mps 742 mmHg 86%
    23:00 +13°C° 0.1 mm 3 mps 742 mmHg 86%

    Tomorrow, 23 February, Saturday

    Time Temperature Precipitation Wind Pressure Humidity
    00:00 +13°C° 0.1 mm 3 mps 742 mmHg 85%
    01:00 +13°C° 0.1 mm 3 mps 742 mmHg 85%
    02:00 +12°C° 0.1 mm 3 mps 741 mmHg 84%
    03:00 +12°C° 0.1 mm 3 mps 741 mmHg 85%
    04:00 +12°C° 0.1 mm 3 mps 741 mmHg 85%
    05:00 +11°C° 0.1 mm 3 mps 741 mmHg 86%
    06:00 +11°C° 0.1 mm 3 mps 741 mmHg 86%
    07:00 +11°C° 0.1 mm 3 mps 741 mmHg 86%
    08:00 +11°C° 0.1 mm 3 mps 742 mmHg 86%
    09:00 +11°C° 0.2 mm 3 mps 742 mmHg 86%
    10:00 +11°C° 0.2 mm 3 mps 742 mmHg 86%
    11:00 +11°C° 0.2 mm 3 mps 742 mmHg 86%
    12:00 +11°C° 0.1 mm 3 mps 741 mmHg 85%
    13:00 +11°C° 0.1 mm 3 mps 740 mmHg 84%
    14:00 +12°C° 0.1 mm 3 mps 740 mmHg 83%
    15:00 +11°C° 0.1 mm 3 mps 740 mmHg 84%
    16:00 +11°C° 0.1 mm 3 mps 740 mmHg 86%
    17:00 +11°C° 0.1 mm 3 mps 740 mmHg 87%
    18:00 +11°C° 0.2 mm 3 mps 740 mmHg 88%
    19:00 +11°C° 0.2 mm 3 mps 741 mmHg 88%
    20:00 +11°C° 0.2 mm 3 mps 741 mmHg 89%
    21:00 +11°C° 0.5 mm 3 mps 741 mmHg 90%
    22:00 +11°C° 0.5 mm 3 mps 741 mmHg 90%
    23:00 +12°C° 0.5 mm 2 mps 742 mmHg 91%

    Day after tomorrow, 24 February, Sunday

    Time Temperature Precipitation Wind Pressure Humidity
    00:00 +12°C° 0.9 mm 2 mps 741 mmHg 91%
    01:00 +10°C° 0.9 mm 2 mps 741 mmHg 91%
    02:00 +10°C° 0.9 mm 3 mps 741 mmHg 92%
    03:00 +10°C° 0.4 mm 3 mps 740 mmHg 92%
    04:00 +12°C° 0.4 mm 2 mps 740 mmHg 92%
    05:00 +12°C° 0.4 mm 2 mps 740 mmHg 92%
    06:00 +12°C° 2.5 mm 2 mps 740 mmHg 92%
    07:00 +12°C° 2.5 mm 2 mps 741 mmHg 93%
    08:00 +12°C° 2.5 mm 2 mps 741 mmHg 93%
    09:00 +12°C° 0.2 mm 2 mps 741 mmHg 91%
    10:00 +11°C° 0.2 mm 3 mps 741 mmHg 89%
    11:00 +12°C° 0.2 mm 3 mps 741 mmHg 87%
    12:00 +12°C° 0.1 mm 3 mps 741 mmHg 86%
    13:00 +13°C° 0.1 mm 2 mps 740 mmHg 85%
    14:00 +13°C° 0.1 mm 2 mps 739 mmHg 84%
    15:00 +13°C° 0.1 mm 2 mps 739 mmHg 84%
    16:00 +13°C° 0.1 mm 2 mps 739 mmHg 85%
    17:00 +13°C° 0.1 mm 2 mps 739 mmHg 86%
    18:00 +13°C° 0.1 mm 2 mps 739 mmHg 87%
    19:00 +13°C° 0.1 mm 1 mps 740 mmHg 89%
    20:00 +12°C° 0.1 mm 1 mps 740 mmHg 90%
    21:00 +12°C° 0.1 mm 1 mps 740 mmHg 90%
    22:00 +12°C° 0.1 mm 1 mps 741 mmHg 90%
    23:00 +12°C° 0.1 mm 1 mps 741 mmHg 90%

    25 February, Monday

    Time Temperature Precipitation Wind Pressure Humidity
    00:00 +12°C° 0 mm 1 mps 741 mmHg 91%
    01:00 +12°C° 0 mm 1 mps 740 mmHg 91%
    02:00 +12°C° 0 mm 1 mps 740 mmHg 91%
    03:00 +12°C° 0 mm 1 mps 740 mmHg 92%
    04:00 +12°C° 0 mm 1 mps 740 mmHg 92%
    05:00 +12°C° 0 mm 1 mps 739 mmHg 92%
    06:00 +12°C° 0 mm 1 mps 740 mmHg 91%
    07:00 +13°C° 0 mm 1 mps 740 mmHg 89%
    08:00 +13°C° 0 mm 1 mps 741 mmHg 88%
    09:00 +14°C° 0 mm 2 mps 741 mmHg 85%
    10:00 +15°C° 0 mm 2 mps 741 mmHg 82%
    11:00 +16°C° 0 mm 2 mps 741 mmHg 79%
    12:00 +15°C° 0 mm 2 mps 741 mmHg 80%
    13:00 +15°C° 0 mm 2 mps 740 mmHg 80%
    14:00 +15°C° 0 mm 2 mps 740 mmHg 81%
    15:00 +14°C° 0 mm 3 mps 740 mmHg 82%
    16:00 +14°C° 0 mm 3 mps 739 mmHg 82%
    17:00 +14°C° 0 mm 3 mps 739 mmHg 83%
    18:00 +14°C° 0 mm 2 mps 740 mmHg 84%
    19:00 +14°C° 0 mm 2 mps 740 mmHg 86%
    20:00 +14°C° 0 mm 2 mps 741 mmHg 88%
    21:00 +14°C° 0.1 mm 2 mps 741 mmHg 88%
    22:00 +14°C° 0.1 mm 2 mps 741 mmHg 89%
    23:00 +14°C° 0.1 mm 2 mps 741 mmHg 90%

    26 February, Tuesday

    Time Temperature Precipitation Wind Pressure Humidity
    00:00 +14°C° 0 mm 2 mps 741 mmHg 90%
    01:00 +14°C° 0 mm 2 mps 741 mmHg 91%
    02:00 +14°C° 0 mm 2 mps 740 mmHg 91%
    03:00 +14°C° 0 mm 2 mps 740 mmHg 91%
    04:00 +14°C° 0 mm 2 mps 740 mmHg 91%
    05:00 +14°C° 0 mm 2 mps 740 mmHg 92%
    06:00 +14°C° 0 mm 2 mps 741 mmHg 91%
    07:00 +14°C° 0 mm 2 mps 741 mmHg 90%
    08:00 +14°C° 0 mm 2 mps 741 mmHg 90%
    09:00 +15°C° 0 mm 2 mps 741 mmHg 88%
    10:00 +15°C° 0 mm 2 mps 741 mmHg 87%
    11:00 +16°C° 0 mm 2 mps 741 mmHg 85%
    12:00 +16°C° 0.1 mm 2 mps 741 mmHg 85%
    13:00 +16°C° 0.1 mm 2 mps 740 mmHg 84%
    14:00 +16°C° 0.1 mm 2 mps 739 mmHg 84%
    15:00 +16°C° 0 mm 2 mps 739 mmHg 85%
    16:00 +16°C° 0 mm 2 mps 739 mmHg 86%
    17:00 +16°C° 0 mm 2 mps 739 mmHg 87%
    18:00 +15°C° 0 mm 2 mps 740 mmHg 89%
    19:00 +15°C° 0 mm 2 mps 740 mmHg 90%
    20:00 +14°C° 0 mm 2 mps 740 mmHg 92%
    21:00 +14°C° 0 mm 2 mps 740 mmHg 92%
    22:00 +14°C° 0 mm 2 mps 740 mmHg 93%
    23:00 +14°C° 0 mm 1 mps 740 mmHg 93%

    27 February, Wednesday

    Time Temperature Precipitation Wind Pressure Humidity
    00:00 +14°C° 0 mm 1 mps 740 mmHg 94%
    01:00 +14°C° 0 mm 1 mps 739 mmHg 94%
    02:00 +14°C° 0 mm 1 mps 739 mmHg 95%
    03:00 +14°C° 0.1 mm 1 mps 739 mmHg 95%
    04:00 +14°C° 0.1 mm 1 mps 738 mmHg 95%
    05:00 +14°C° 0.1 mm 1 mps 738 mmHg 94%
    06:00 +15°C° 0.1 mm 1 mps 738 mmHg 93%
    07:00 +15°C° 0.1 mm 1 mps 739 mmHg 91%
    08:00 +16°C° 0.1 mm 1 mps 739 mmHg 90%
    09:00 +18°C° 0.4 mm 1 mps 739 mmHg 87%
    10:00 +19°C° 0.4 mm 1 mps 739 mmHg 84%
    11:00 +20°C° 0.4 mm 1 mps 738 mmHg 80%
    12:00 +20°C° 0.5 mm 1 mps 738 mmHg 81%
    13:00 +20°C° 0.5 mm 1 mps 737 mmHg 81%
    14:00 +20°C° 0.5 mm 1 mps 736 mmHg 82%
    15:00 +20°C° 0.5 mm 1 mps 737 mmHg 85%
    16:00 +20°C° 0.5 mm 1 mps 737 mmHg 88%
    17:00 +18°C° 0.5 mm 2 mps 737 mmHg 91%
    18:00 +18°C° 0.5 mm 2 mps 737 mmHg 93%
    19:00 +18°C° 0.5 mm 2 mps 738 mmHg 94%
    20:00 +17°C° 0.5 mm 2 mps 738 mmHg 96%
    21:00 +17°C° 0.1 mm 2 mps 738 mmHg 96%
    22:00 +17°C° 0.1 mm 2 mps 739 mmHg 96%
    23:00 +17°C° 0.1 mm 2 mps 739 mmHg 96%
    Show more